User: anonymous   Login
Location: Unspecified
(0.0000°N, 0.0000°E)
Time: 04:56:59
(UTC+01:00)
Language:

CZ-4 DEB - Orbit

View from above orbital plane
View from above orbital plane
View from above satellite
View from above satellite

Ground track
Ground track

The orbit data is extracted from the following two-line orbital elements,

1 29508U 06046D   14304.68029671  .00024174  00000-0  12659-2 0  7183
2 29508 097.7035 313.0843 0006284 163.7514 330.6654 15.15792630437961
Epoch (UTC): 31 October 2014 16:19:37
Eccentricity: 0.0006284
inclination: 97.7035°
perigee height: 514 km
apogee height: 523 km
right ascension of ascending node: 313.0843°
argument of perigee: 163.7514°
revolutions per day: 15.15792630
mean anomaly at epoch: 330.6654°
orbit number at epoch: 43796

The dashed part of the orbit path shows where the satellite is in the earth's shadow,  

DLR